Regional Weather Roundup
Issued by NWS

Home | Current Version | Previous Version | Graphics & Text | Print | Product List | Glossary Off
Versions: 1 2 3 4 5 6 7 8 9 10 11 12 13 14 15 16 17 18 19 20 21 22 23 24 25 26 27 28 29 30 31 32 33 34 35 36 37 38 39 40 41 42 43 44 45 46 47 48 49 50

000
ASUS45 KBOU 300307
RWRCO

WEATHER ROUNDUP FOR COLORADO
NATIONAL WEATHER SERVICE DENVER/BOULDER CO
900 PM MDT SUN MAY 29 2016

NOTE: "FAIR" INDICATES FEW OR NO CLOUDS BELOW 12000 FEET WITH NO
SIGNIFICANT WEATHER AND/OR OBSTRUCTIONS TO VISIBILITY.

COZ001>005-013-030-031-300400-
...NORTHWEST COLORADO...

CITY           SKY/WX    TMP DP  RH WIND       PRES   REMARKS
CRAIG          MOCLDY    52  42  69 CALM      30.18S
HAYDEN         FAIR      54  36  50 CALM      30.20R
MEEKER         FAIR      57  41  55 SE8       30.19F
MOUNT WERNER   NOT AVBL
STEAMBOAT SPGS FAIR      51  36  55 CALM      30.21R
WALDEN         NOT AVBL
$$

COZ006>008-011-300400-
...WEST CENTRAL VALLEYS...

CITY           SKY/WX    TMP DP  RH WIND       PRES   REMARKS
GRAND JUNCTION FAIR      68  34  28 NE10      30.03R
MONTROSE       FAIR      64  36  35 S8        30.11R
EAGLE          FAIR      57  36  44 CALM      30.18R
RIFLE          FAIR      63  37  38 NW5       30.11R
DELTA          FAIR      65  33  29 N8        30.06S
NUCLA          FAIR      63  30  29 E8        30.11F
$$

COZ017>023-064>068-300400-
...SOUTHWEST COLORADO...

CITY           SKY/WX    TMP DP  RH WIND       PRES   REMARKS
DURANGO        FAIR      65  18  16 W5        30.11R
CORTEZ         FAIR      63  29  27 CALM      30.06R
PAGOSA SPRINGS FAIR      56  23  28 CALM      30.19S
TELLURIDE      FAIR      53  28  38 CALM      30.31R
WOLF CREEK PAS FAIR      41  18  38 SW9       30.48S
$$

COZ009-010-012-014-032>034-037-058>063-300400-
...CENTRAL COLORADO...

CITY           SKY/WX    TMP DP  RH WIND       PRES   REMARKS
ASPEN          FAIR      49  35  58 S8        30.22R
BUENA VISTA    FAIR      50  28  43 W3        30.25R
COPPER MTN     NOT AVBL
BERTHOUD PASS  FAIR      32  23  69 N12G21    30.48S WCI  23
COTTONWOOD PAS FAIR      50  28  43 CALM      30.35S
GUNNISON       FAIR      52  34  50 NW9       30.24F
KREMMLING      CLOUDY    52  36  54 S13       30.24R
LEADVILLE      FAIR      42  26  53 NE7       30.34R
MONARCH PASS   FAIR      37  28  70 W14       30.56R
SALIDA         FAIR      57  29  34 W7        30.29R
SUNLIGHT       FAIR      43  32  65 CALM      30.42S
WILKERSON PASS FAIR      43  25  49 NE7       30.47R
$$

COZ069>075-300400-
...SAN LUIS VALLEY/SANGRE DE CRISTO MOUNTAINS...

CITY           SKY/WX    TMP DP  RH WIND       PRES   REMARKS
ALAMOSA        FAIR      56  33  42 N8        30.20R
LA VETA PASS   MOCLDY    48  28  46 N7        30.39R
SAGUACHE       FAIR      54  32  43 NW7       30.25R
$$

COZ035-036-038>040-300400-
...NORTHERN COLORADO FRONT RANGE...

CITY           SKY/WX    TMP DP  RH WIND       PRES   REMARKS
DENVER INTL AP MOCLDY    60  41  49 N10       30.11R
DMNS CITY PARK   N/A     62  42  47 E12       30.11R
AURORA         MOCLDY    56  45  66 SE7       30.14R
FRONT RANGE AP NOT AVBL
ERIE MUNI ARPT FAIR      56  50  80 W3        30.11R
BOULDER MUN AP FAIR      59  45  58 NE3       30.11R
CENTENNIAL     MOCLDY    55  42  61 S6        30.14R
BROOMFIELD     MOCLDY    59  48  67 E6        30.13R
FORT COLLINS   FAIR      57  45  62 W5        30.11S
LONGMONT       FAIR      60  48  64 N3        30.12S
$$

COZ041-046-047-076>085-087-088-300400-
...PIKES PEAK/PALMER DIVIDE AND SOUTHERN FOOTHILLS...

CITY           SKY/WX    TMP DP  RH WIND       PRES   REMARKS
COLO. SPRINGS  FAIR      61  41  47 NW15      30.17R
A. F. ACADEMY  FAIR      55  41  58 N9        30.19R
SCHRIEVER AFB  NOT AVBL
ELLICOTT       FAIR     N/A N/A N/A NE5       30.14R
FALCON         FAIR      55  38  51 N9        30.22R
FORT CARSON    FAIR      55  45  68 NW10      30.14R
LIMON          FAIR      55  47  74 N10       30.10R
MONUMENT HILL  FAIR      50  41  71 N3        30.23R
TRINIDAD       FAIR      60  44  55 SE18G30   30.11R
$$

COZ042>045-048>051-090-091-300400-
...NORTHEAST COLORADO...

CITY           SKY/WX    TMP DP  RH WIND       PRES   REMARKS
GREELEY ARPT   FAIR      64  43  45 CALM      30.10R
AKRON          FAIR      62  47  57 NW12      30.06R
BURLINGTON     FAIR      59  50  72 S29G38    30.06R
WRAY           CLOUDY    61  54  77 E17G24    30.07R
STERLING       CLOUDY    64  50  59 CALM      30.03R
HOLYOKE        NOT AVBL
FORT MORGAN    FAIR      61  49  64 N10       30.06F
$$

COZ086-089-092>099-300400-
...SOUTHEAST COLORADO...

CITY           SKY/WX    TMP DP  RH WIND       PRES   REMARKS
PUEBLO         FAIR      64  45  49 SE9G20    30.07R
LA JUNTA       FAIR      66  46  48 S12       30.05R
LAMAR          FAIR      64  47  53 S14       30.05R
SPRINGFIELD      N/A     55  50  83 S14       30.11S
$$



USA.gov is the U.S. government's official web portal to all federal, state and local government web resources and services.